Regional Weather Roundup
Issued by NWS

Home | Current Version | Previous Version | Graphics & Text | Print | Product List | Glossary On
Versions: 1 2 3 4 5 6 7 8 9 10 11 12 13 14 15 16 17 18 19 20 21 22 23 24 25 26
000
ASUS45 KBOU 211510
RWRCO

WEATHER ROUNDUP FOR COLORADO
NATIONAL WEATHER SERVICE DENVER/BOULDER CO
900 AM MDT MON MAY 21 2018

NOTE: "FAIR" INDICATES FEW OR NO CLOUDS BELOW 12000 FEET WITH NO
SIGNIFICANT WEATHER AND/OR OBSTRUCTIONS TO VISIBILITY.

COZ001>005-013-030-031-211600-
...NORTHWEST COLORADO...

CITY           SKY/WX    TMP DP  RH WIND       PRES   REMARKS
CRAIG          FAIR      54  42  64 CALM      30.07S
HAYDEN         FAIR      55  39  54 SE5       30.10S
MEEKER         FAIR      51  39  63 CALM      30.06F
RANGELY        FAIR      55  38  51 E5        30.03S
RABBIT EARS PA FAIR      45  30  57 CALM      30.28S
STEAMBOAT SPGS FAIR      49  37  64 CALM      30.10S
WALDEN         FAIR      46  37  71 CALM      30.18S
$$

COZ006>008-011-211600-
...WEST CENTRAL VALLEYS...

CITY           SKY/WX    TMP DP  RH WIND       PRES   REMARKS
GRAND JUNCTION FAIR      63  35  35 SE12      29.99S
MONTROSE       FAIR      60  32  34 CALM      30.06F
EAGLE          FAIR      49  33  54 CALM      30.17F
RIFLE          FAIR      55  37  50 CALM      30.05F
DELTA          FAIR      61  32  33 CALM      30.05R
NUCLA          FAIR      59  32  36 N3        30.08S
$$

COZ017>023-064>068-211600-
...SOUTHWEST COLORADO...

CITY           SKY/WX    TMP DP  RH WIND       PRES   REMARKS
DURANGO        FAIR      63  42  46 NE12      30.14S
CORTEZ         FAIR      68  35  29 SE18G26   30.06S
PAGOSA SPRINGS FAIR      59  39  48 CALM      30.22R
TELLURIDE      FAIR      56  28  32 S3        30.24S
WOLF CREEK PAS CLOUDY    36  36 100 S14G25    30.45R
$$

COZ009-010-012-014-032>034-037-058>063-211600-
...CENTRAL COLORADO...

CITY           SKY/WX    TMP DP  RH WIND       PRES   REMARKS
ASPEN          FAIR      53  32  44 N6        30.14F
BUENA VISTA    FAIR      49  35  58 CALM      30.24S
COPPER MTN     FAIR      45  27  49 S9        30.38R
BERTHOUD PASS  FAIR      36  28  75 W16       30.39R
COTTONWOOD PAS FAIR      50  39  66 CALM      30.31R
GUNNISON       FAIR      50  34  54 VRB3      30.22F
GRANBY         FAIR      44  35  72 CALM      30.21F
KREMMLING      FAIR      54  37  54 CALM      30.19S
LEADVILLE      FAIR      40  32  73 CALM      30.29R
MONARCH PASS   FAIR      37  32  81 MISG      30.50R
SALIDA         FAIR      50  39  66 N5        30.29F
SUNLIGHT       FAIR      43  25  49 S8        30.33R
WILKERSON PASS FAIR      37  32  81 SW14G22   30.39R
$$

COZ069>075-211600-
...SAN LUIS VALLEY/SANGRE DE CRISTO MOUNTAINS...

CITY           SKY/WX    TMP DP  RH WIND       PRES   REMARKS
ALAMOSA        FAIR      51  40  65 E6        30.24R
DEL NORTE      FAIR      51  35  53 W3        30.25S
LA VETA PASS   CLOUDY    43  36  75 SW8       30.47R
SAGUACHE       NOT AVBL
$$

COZ035-036-038>040-211600-
...NORTHERN COLORADO FRONT RANGE...

CITY           SKY/WX    TMP DP  RH WIND       PRES   REMARKS
DENVER INTL AP FAIR      54  45  71 CALM      30.04S
AURORA         PTSUNNY   57  47  68 CALM      30.05S
FRONT RANGE AP PTSUNNY   55  48  76 W5        30.06R
ERIE MUNI ARPT FAIR      55  47  76 CALM      30.09R
BOULDER MUN AP FAIR      54  46  76 CALM      30.03S
CENTENNIAL     PTSUNNY   62  40  44 SW9       30.05S
BROOMFIELD     PTSUNNY   54  48  82 CALM      30.05S
FORT COLLINS   FAIR      52  47  83 CALM      30.04R
LONGMONT       NOT AVBL
$$

COZ041-046-047-076>085-087-088-211600-
...PIKES PEAK/PALMER DIVIDE AND SOUTHERN FOOTHILLS...

CITY           SKY/WX    TMP DP  RH WIND       PRES   REMARKS
COLO. SPRINGS  PTSUNNY   61  43  51 CALM      30.10S
A. F. ACADEMY  FAIR      54  44  71 CALM      30.10F
SCHRIEVER AFB  NOT AVBL
CHEYENNE MTN   FAIR      57  46  66 CALM      30.07S
ELLICOTT         N/A    N/A N/A N/A SW10      30.08S
FALCON         FAIR      61  38  42 S5        30.14R
FORT CARSON    PTSUNNY   57  44  61 N5        30.07S
LIMON          FAIR      59  49  69 SE8       30.05F
MONUMENT HILL  FAIR      55  39  54 SW9       30.13R
CANON CITY     FAIR      61  45  55 W15G24    30.08S
WALSENBURG     FAIR      64  46  52 W18G26    30.12S
TRINIDAD       FAIR      60  51  72 W15G25    30.13R
$$

COZ042>045-048>051-090-091-211600-
...NORTHEAST COLORADO...

CITY           SKY/WX    TMP DP  RH WIND       PRES   REMARKS
GREELEY ARPT   FAIR      52  47  83 CALM      30.04R
AKRON          FAIR      56  50  80 S10       30.03S
BURLINGTON     FAIR      56  51  84 S18       30.06R
WRAY           CLOUDY    54  50  87 S10       30.06S
YUMA           CLOUDY    52  41  66 S15       30.03F
STERLING       FAIR      59  50  72 S8        30.01S
HOLYOKE        CLOUDY    54  50  87 S15       30.05S
FORT MORGAN    FAIR      51  45  80 W8        30.04R
$$

COZ086-089-092>099-211600-
...SOUTHEAST COLORADO...

CITY           SKY/WX    TMP DP  RH WIND       PRES   REMARKS
PUEBLO         FAIR      60  45  57 W10       30.05F
LA JUNTA       FAIR      64  49  57 S6        30.05S
LAMAR          FAIR      66  50  56 S10       30.03F
SPRINGFIELD      N/A     67  50  54 S21G31    30.10R
$$




USA.gov is the U.S. government's official web portal to all federal, state and local government web resources and services.